[[{"header":{"parameterUnit":"m.s-1","parameterCategory":1,"la1":30.2991,"la2":30.254,"lo1":-89.0895,"lo2":-89.0444,"dy":0.0017,"dx":0.0017,"nx":28,"ny":28,"refTime":"2024-05-31T09:00:00:Z","depth":0,"parameterNumber":2,"parameterNumberName":"U-component_of_WINDS"},"data":[0,0,0,0,0,0,0,0,0,0,0,0,0,0,0,0,0,0,0,0,0,0,0,0,0,0,0,0,0,0,0,0,0,0,0,0,0,0,0,0,0,0,0,0,0,0,0,0,0,0,0,0,0,0,0,0,0,0,-2.2088,-2.2082,0,-2.1514,-2.1507,-2.1501,-2.1184,-2.1183,-2.1182,-2.1182,-2.0594,-2.058,-2.0565,0,0,0,0,0,0,0,0,0,0,0,0,0,-2.2911,-2.2898,-2.2089,-2.2082,-2.2075,-2.1515,-2.1507,-2.1499,-2.1184,-2.1183,-2.1182,-2.1181,-2.0599,-2.0581,-2.0564,0,0,0,0,0,0,0,0,0,0,0,0,0,-2.2468,-2.2894,-2.209,-2.185,-2.1823,-2.1516,-2.1507,-2.1497,-2.1185,-2.1183,-2.1182,-2.1181,-2.0605,-2.0583,-2.0561,-2.045,0,0,-2.0493,-2.0483,0,0,0,0,0,0,0,0,-2.2493,-2.2438,-2.1893,-2.1866,-2.1835,-2.1419,-2.1581,-2.1146,-2.1185,-2.1427,-2.1182,-2.118,-2.087,-2.0826,-2.072,-2.0422,-2.0397,-2.0491,-2.0478,-2.0468,-2.0462,0,0,0,0,0,0,0,-2.2524,-2.2461,-2.1861,-2.1885,-2.185,-2.177,-2.1706,-2.1497,-2.1163,-2.1406,-2.1381,-2.1318,-2.0854,-2.0743,-2.0704,-2.0388,-2.0492,-2.0472,-2.0458,-2.0449,-1.9965,-1.9966,0,0,0,0,0,0,-2.2594,-2.2488,-2.188,-2.1844,-2.2168,-2.1756,-2.1684,-2.1554,-2.1164,-2.1103,-2.1319,-2.1305,-2.0781,-2.0731,-2.0683,-2.0524,-2.0468,-2.0447,-2.0434,-1.9965,-1.9965,-1.9966,0,0,0,0,0,0,-2.2613,-2.2542,-2.1903,-2.2159,-2.2072,-2.1744,-2.16,-2.1544,-2.1432,-2.1099,-2.1037,-2.1268,-2.0778,-2.0714,-2.0509,-2.0499,-2.0437,-2.0417,-1.9964,-1.9965,-1.9966,-2.0208,0,0,0,0,0,0,-2.2638,-2.2551,-2.2506,-2.2161,-2.2059,-2.174,-2.1599,-2.1533,-2.1395,-2.137,-2.1034,-2.0977,-2.0772,-2.0544,-2.0487,-2.0467,-2.04,-1.9964,-1.9965,-1.9966,-2.02,-2.0217,-2.0232,0,0,0,0,0,-2.2668,-2.2599,-2.2506,-2.2434,-2.1997,-2.174,-2.1682,-2.1448,-2.1395,-2.1346,-2.1132,-2.0988,-2.051,-2.0526,-2.0459,-2.0433,-1.9963,-1.9964,-1.9965,-2.0193,-2.0214,-2.0232,0,0,0,0,0,0,-2.2953,-2.2549,-2.2442,-2.2258,-2.2036,-2.1688,-2.1619,-2.1479,-2.1267,-2.1253,-2.0972,-2.0898,-2.072,-2.0555,-2.058,-2.0302,-2.0221,-2.0209,-2.0417,-2.0434,-2.045,-2.0494,-2.0381,0,0,0,0,0,-2.2994,-2.282,-2.2476,-2.2348,-2.2242,-2.1951,-2.183,-2.1669,-2.1427,-2.1332,-2.1102,-2.0873,-2.067,-2.0543,-2.0338,-2.0174,-2.0095,-2.0123,-2.014,-2.0155,-2.0148,-2.0046,-2.0053,-1.997,-1.997,-1.997,0,0,-2.3078,-2.2836,-2.2744,-2.2399,-2.2208,-2.2033,-2.1874,-2.1696,-2.1563,-2.1304,-2.1096,-2.092,-2.0645,-2.046,-2.0367,-2.0317,-2.0153,-2.0156,-2.0171,-2.0154,-2.0048,-2.0056,-2.0063,-1.997,-1.997,-1.997,0,0,-2.3142,-2.2942,-2.2811,-2.2622,-2.2334,-2.214,-2.2109,-2.178,-2.1653,-2.1439,-2.124,-2.1078,-2.0736,-2.0547,-2.0407,-2.0396,-2.0255,-2.0338,-2.0423,-2.0327,-2.0334,-2.0338,-2.0333,-2.0335,-2.0331,-2.0332,-2.0332,0,-2.3283,-2.3012,-2.2762,-2.2594,-2.2448,-2.2204,-2.2069,-2.1897,-2.1558,-2.1462,-2.1411,-2.0974,-2.0772,-2.0538,-2.0536,-2.0431,-2.0385,-2.0375,-2.0353,-2.0355,-2.0355,-2.0347,-2.0346,-2.0344,-2.0342,-2.0341,-2.034,0,-2.3198,-2.3013,-2.2942,-2.2619,-2.2464,-2.2315,-2.2041,-2.1914,-2.1765,-2.1577,-2.1361,-2.111,-2.0849,-2.0781,-2.0635,-2.0525,-2.0503,-2.0407,-2.0319,-2.0379,-2.0367,-2.0362,-2.0361,-2.0356,-2.0353,-2.035,0,0,-2.3428,-2.2966,-2.2944,-2.2793,-2.2455,-2.2307,-2.2145,-2.1888,-2.1784,-2.1558,-2.1414,-2.1128,-2.1035,-2.0876,-2.0706,-2.0623,-2.0628,-2.0534,-2.0524,-2.056,-2.0489,-2.0564,-2.0565,-2.0532,-2.053,-2.0529,-2.0512,0,-2.3443,-2.314,-2.2909,-2.2694,-2.2518,-2.2282,-2.214,-2.1918,-2.1736,-2.156,-2.1359,-2.1161,-2.1054,-2.0956,-2.0863,-2.0648,-2.061,-2.0645,-2.0395,-2.0389,-2.0471,-2.0558,-2.0637,-2.0633,-2.0505,-2.0504,-2.0503,0,-2.3421,-2.3201,-2.2969,-2.2645,-2.2563,-2.244,-2.2184,-2.2019,-2.1761,-2.1634,-2.1456,-2.1279,-2.1096,-2.1026,-2.0769,-2.0798,-2.0681,-2.056,-2.0554,-2.0522,-2.0451,-2.0528,-2.0626,-2.0627,-2.0493,-2.0494,-2.0495,0,-2.3611,-2.3257,-2.307,-2.2948,-2.2568,-2.2486,-2.2324,-2.2063,-2.1923,-2.1699,-2.1605,-2.1365,-2.1233,-2.105,-2.0813,-2.0784,-2.058,-2.0491,-2.0469,-2.0476,-2.0438,-2.0444,-2.0519,-2.0364,-2.0364,-2.0364,-2.0364,0,-2.3652,-2.352,-2.315,-2.3037,-2.2879,-2.2613,-2.2464,-2.2282,-2.2051,-2.1896,-2.1677,-2.1537,-2.1232,-2.1054,-2.0867,-2.0681,-2.0624,-2.0516,-2.0468,-2.0535,-2.055,-2.0456,-2.045,-2.0364,-2.0364,-2.0364,-2.0364,0,-2.384,-2.3588,-2.3369,-2.3025,-2.2935,-2.2834,-2.2539,-2.2418,-2.2223,-2.203,-2.1969,-2.1664,-2.1442,-2.1187,-2.0883,-2.0756,-2.0586,-2.0515,-2.0674,-2.0646,-2.0639,-2.0643,-2.0657,-2.0644,-2.0501,-2.0503,-2.0504,0,-2.3884,-2.3775,-2.3419,-2.3299,-2.3142,-2.2952,-2.2806,-2.2539,-2.2397,-2.2091,-2.2007,-2.1769,-2.1564,-2.1222,-2.0973,-2.0738,-2.066,-2.068,-2.0623,-2.0694,-2.0659,-2.0669,-2.0656,-2.0698,-2.07,-2.0703,-2.0705,0,-2.3988,-2.3867,-2.3666,-2.342,-2.3253,-2.3046,-2.2831,-2.2745,-2.2434,-2.2285,-2.2055,-2.1896,-2.1583,-2.1349,-2.1082,-2.0913,-2.0757,-2.0724,-2.0706,-2.0775,-2.0871,-2.0818,-2.0717,-2.0726,-2.0723,-2.0722,-2.0721,-2.072,-2.4104,-2.3995,-2.3726,-2.3508,-2.3317,-2.312,-2.2989,-2.2776,-2.258,-2.2303,-2.2157,-2.193,-2.1669,-2.1294,-2.1131,-2.0948,-2.0896,-2.0871,-2.0865,-2.0863,-2.0882,-2.09,-2.0899,-2.0898,-2.0897,-2.0896,-2.0895,0,-2.4197,-2.4011,-2.3813,-2.3517,-2.3345,-2.321,-2.2963,-2.2829,-2.2631,-2.2401,-2.2203,-2.1937,-2.1708,-2.1439,-2.1193,-2.1098,-2.102,-2.1043,-2.1047,-2.101,-2.0943,-2.0983,-2.1109,-2.1109,-2.1109,-2.1109,-2.1109,-2.1109,-2.4225,-2.4033,-2.388,-2.3591,-2.3404,-2.3179,-2.3049,-2.2865,-2.268,-2.2393,-2.22,-2.2026,-2.1779,-2.1511,-2.1295,-2.1221,-2.1141,-2.1185,-2.1091,-2.1034,-2.1016,-2.0998,-2.1034,-2.1169,-2.1169,-2.1172,-2.1172,-2.1172]},{"header":{"parameterUnit":"m.s-1","parameterCategory":1,"la1":30.2991,"la2":30.254,"lo1":-89.0895,"lo2":-89.0444,"dy":0.0017,"dx":0.0017,"nx":28,"ny":28,"refTime":"2024-05-31T09:00:00:Z","depth":0,"parameterNumber":3,"parameterNumberName":"V-component_of_WINDS"},"data":[0,0,0,0,0,0,0,0,0,0,0,0,0,0,0,0,0,0,0,0,0,0,0,0,0,0,0,0,0,0,0,0,0,0,0,0,0,0,0,0,0,0,0,0,0,0,0,0,0,0,0,0,0,0,0,0,0,0,8.0287,8.0287,0,8.0343,8.0343,8.0344,8.0215,8.0211,8.0207,8.0203,8.0255,8.0261,8.0266,0,0,0,0,0,0,0,0,0,0,0,0,0,8.0062,8.0067,8.0287,8.0287,8.0288,8.0343,8.0343,8.0344,8.0216,8.0211,8.0206,8.0201,8.0254,8.026,8.0266,0,0,0,0,0,0,0,0,0,0,0,0,0,8.0143,8.0068,8.0286,8.0231,8.0226,8.0342,8.0343,8.0344,8.0217,8.021,8.0204,8.0199,8.0252,8.0259,8.0267,8.0439,0,0,8.0291,8.0294,0,0,0,0,0,0,0,0,8.0139,8.0151,8.0238,8.0235,8.023,8.0266,8.0283,8.0376,8.0218,8.022,8.0203,8.0196,8.0264,8.027,8.0294,8.0441,8.0443,8.0292,8.0296,8.03,8.0302,0,0,0,0,0,0,0,8.0133,8.0148,8.0308,8.0239,8.0234,8.0201,8.0205,8.03,8.0275,8.0219,8.021,8.0219,8.026,8.0287,8.0294,8.0444,8.0292,8.0298,8.0303,8.0306,8.0733,8.074,0,0,0,0,0,0,8.0135,8.0144,8.0307,8.031,8.0168,8.021,8.0215,8.026,8.0274,8.027,8.0224,8.0213,8.0276,8.0285,8.0296,8.0497,8.03,8.0307,8.0312,8.0727,8.0735,8.0742,0,0,0,0,0,0,8.0131,8.0151,8.0304,8.0225,8.0242,8.022,8.0272,8.0265,8.0291,8.0278,8.0272,8.0256,8.0272,8.0284,8.0404,8.0497,8.0311,8.0318,8.0719,8.0729,8.0739,8.0901,0,0,0,0,0,0,8.0125,8.015,8.0217,8.0227,8.0247,8.0415,8.0278,8.027,8.0306,8.0291,8.0306,8.0303,8.0268,8.0393,8.0412,8.0504,8.0324,8.0711,8.0724,8.0735,8.0888,8.0916,8.094,0,0,0,0,0,8.0118,8.026,8.0221,8.0241,8.033,8.042,8.0431,8.0389,8.0314,8.0379,8.037,8.0302,8.0484,8.0406,8.0426,8.0523,8.0705,8.072,8.0734,8.0876,8.091,8.0939,0,0,0,0,0,0,8.0259,8.026,8.0217,8.0367,8.0395,8.0398,8.048,8.0427,8.0475,8.0459,8.0403,8.0408,8.0538,8.0542,8.0456,8.0689,8.0581,8.0601,8.0682,8.0714,8.074,8.0736,8.033,0,0,0,0,0,8.0308,8.0383,8.0379,8.0512,8.0528,8.0502,8.054,8.0505,8.0531,8.0541,8.0541,8.0567,8.0629,8.0672,8.0728,8.0887,8.0888,8.0963,8.0989,8.101,8.1028,8.1111,8.1144,8.0791,8.0791,8.0791,0,0,8.0409,8.0419,8.047,8.0541,8.0558,8.0635,8.0513,8.06,8.0656,8.0554,8.0667,8.0668,8.0693,8.0833,8.0894,8.084,8.1126,8.1029,8.1047,8.1053,8.113,8.1163,8.1193,8.0801,8.0799,8.0798,0,0,8.0633,8.0649,8.0761,8.0781,8.0809,8.0791,8.0818,8.083,8.0827,8.094,8.0865,8.0929,8.1039,8.1059,8.1084,8.1316,8.1255,8.1336,8.1472,8.1553,8.1581,8.1605,8.1687,8.1717,8.1353,8.1354,8.1354,0,8.0755,8.0871,8.0825,8.0918,8.095,8.0863,8.0974,8.0995,8.104,8.1064,8.1003,8.1138,8.1148,8.1291,8.1348,8.1371,8.1399,8.1334,8.1581,8.1605,8.1627,8.1704,8.1735,8.1363,8.1362,8.1361,8.136,0,8.1019,8.11,8.1187,8.1234,8.1276,8.1378,8.1345,8.1393,8.1355,8.1342,8.1458,8.1468,8.1524,8.1556,8.1518,8.1694,8.1659,8.1591,8.1481,8.1671,8.1743,8.1772,8.1377,8.1374,8.1371,8.1368,0,0,8.1334,8.1355,8.1387,8.1407,8.1432,8.1492,8.1589,8.1646,8.1688,8.1721,8.18,8.1894,8.1831,8.186,8.1824,8.1896,8.2077,8.1818,8.1817,8.1865,8.2269,8.232,8.2356,8.2037,8.2042,8.2047,8.2267,0,8.1555,8.1724,8.1685,8.1851,8.1924,8.1842,8.1926,8.1949,8.194,8.1999,8.1987,8.2055,8.1967,8.1983,8.2051,8.2041,8.2157,8.2024,8.2108,8.2112,8.2104,8.2393,8.2447,8.2655,8.2295,8.2299,8.2303,0,8.1836,8.1882,8.2056,8.2068,8.2097,8.2174,8.2222,8.2281,8.2304,8.2292,8.2324,8.2274,8.2368,8.2258,8.2385,8.2296,8.2327,8.2328,8.2335,8.234,8.2219,8.2406,8.272,8.2751,8.2347,8.2343,8.234,0,8.2048,8.2153,8.227,8.229,8.2307,8.2363,8.2372,8.2389,8.2426,8.2468,8.2491,8.2543,8.2571,8.2611,8.2576,8.2499,8.2709,8.2596,8.27,8.2701,8.2747,8.2745,8.307,8.2769,8.2769,8.2768,8.2768,0,8.2299,8.2408,8.2366,8.2438,8.2557,8.251,8.2629,8.2628,8.2645,8.2714,8.2645,8.2711,8.266,8.2721,8.2693,8.2802,8.2816,8.2807,8.2799,8.2813,8.2814,8.2833,8.2817,8.2776,8.2775,8.2773,8.2772,0,8.2556,8.2532,8.2654,8.266,8.2664,8.2752,8.2756,8.2822,8.2807,8.2896,8.2913,8.289,8.2958,8.2927,8.2998,8.2979,8.312,8.3092,8.3112,8.3105,8.321,8.32,8.3558,8.3602,8.3274,8.3277,8.328,0,8.2717,8.28,8.2815,8.2857,8.2872,8.294,8.2978,8.2934,8.2975,8.3008,8.307,8.3132,8.318,8.3292,8.3281,8.3334,8.3306,8.3428,8.3314,8.3326,8.3307,8.3302,8.331,8.3451,8.3455,8.3458,8.3461,0,8.3006,8.299,8.3047,8.3101,8.3148,8.3188,8.3221,8.3259,8.3216,8.3266,8.3335,8.3373,8.3445,8.3508,8.3554,8.3561,8.3504,8.3497,8.3523,8.3539,8.3547,8.3543,8.3174,8.3489,8.3486,8.3484,8.3482,8.3481,8.3219,8.3288,8.331,8.3376,8.3396,8.3429,8.3491,8.3485,8.3543,8.36,8.357,8.3651,8.3671,8.3728,8.3743,8.3804,8.3756,8.3795,8.3804,8.3814,8.3828,8.3538,8.3813,8.3812,8.3811,8.381,8.381,0,8.3503,8.3513,8.3574,8.3624,8.3676,8.3619,8.3652,8.3699,8.3771,8.3796,8.3844,8.3924,8.3983,8.3977,8.4031,8.4082,8.4057,8.4097,8.4092,8.4095,8.3869,8.384,8.4117,8.4117,8.4117,8.4116,8.4116,8.4116,8.3657,8.377,8.3757,8.3879,8.3888,8.3968,8.3992,8.4021,8.404,8.4132,8.4183,8.4178,8.419,8.4245,8.4296,8.4293,8.4315,8.4366,8.4352,8.4141,8.4111,8.4082,8.4054,8.4372,8.4372,8.4573,8.4575,8.4576]}]]